Regional Weather Roundup
Issued by NWS Kansas City/Pleasant Hill, MO

Home | Current Version | Previous Version | Graphics & Text | Print | Product List | Glossary Off
Versions: 1 2 3 4 5 6 7 8 9 10 11 12 13 14 15 16 17 18 19 20 21 22 23 24 25 26 27 28 29 30 31 32 33 34 35 36 37 38 39 40 41 42 43 44 45 46 47 48 49 50

000
ASUS43 KEAX 171504
RWREAX

WEATHER ROUNDUP FOR EASTERN KANSAS AND NORTHWEST MISSOURI
NATIONAL WEATHER SERVICE KANSAS CITY/PLEASANT HILL MO
1000 AM CDT THU APR 17 2014

KSZ040-057-103>105-MOZ028-029-037-043-171600-
...KANSAS CITY METROPOLITAN AREA...

CITY           SKY/WX    TMP DP  RH WIND       PRES   REMARKS
K.C. INTL      CLOUDY    38  29  70 N13       30.28R WCI  30
K.C. DOWNTOWN  CLOUDY    41  30  65 N10       30.29R WCI  35
LEES SUMMIT    CLOUDY    39  31  72 N12       30.28R WCI  32
OLATHE - IXD   CLOUDY    39  30  70 N12       30.28S WCI  32
OLATHE - OJC   CLOUDY    40  30  67 N9        30.27R WCI  34
LAWRENCE       CLOUDY    40  30  67 N9        30.30S WCI  34

$$

MOZ001>008-011>017-020>025-030>033-038>040-044>046-053-054-171600-
...NORTHERN AND CENTRAL MISSOURI...

CITY           SKY/WX    TMP DP  RH WIND       PRES   REMARKS
ST. JOSEPH     CLOUDY    39  28  64 N13       30.31R WCI  31
MOSBY          CLOUDY    37  32  81 NW7       30.30R WCI  32
WHITEMAN AFB   PTSUNNY   42  32  69 N10       30.26R
CLINTON        CLOUDY    45  37  76 N10       30.26S
SEDALIA        CLOUDY    44  36  73 NW10      30.27R
WARSAW         NOT AVBL
MARSHALL         N/A     43  37  81 NW9       30.26R
CHILLICOTHE      N/A     40  31  70 N7        30.30R
MOBERLY        CLOUDY    43  34  70 NW9       30.27R
KIRKSVILLE     CLOUDY    41  32  70 NW8       30.27R

$$

MOZ041-047>049-056>058-063>065-088>090-097-171600-
...EASTERN AND SOUTHERN MISSOURI...

CITY           SKY/WX    TMP DP  RH WIND       PRES   REMARKS
ST. LOUIS INTL PTSUNNY   58  34  40 W8        30.24R
SPIRIT OF STL  PTSUNNY   55  33  43 SW10      30.24R
COLUMBIA       PTSUNNY   48  37  65 NW7       30.26R
JEFFERSON CITY PTSUNNY   48  36  63 W8        30.26R
MEXICO         PTSUNNY   45  37  76 N6        30.24R
HANNIBAL       CLOUDY    48  34  57 NW8       30.25R
ROLLA          CLOUDY    49  34  56 S12       30.22R
LEBANON        CLOUDY    52  34  50 SW7       30.24R
OSAGE BEACH    CLOUDY    50  32  50 W5        30.26R
SPRINGFIELD    PTSUNNY   52  34  50 S9        30.23R
BRANSON        MOSUNNY   54  34  47 S5        30.25R
NEVADA         CLOUDY    45  36  70 N7        30.28R
JOPLIN         PTSUNNY   50  38  63 NE7       30.24R
WEST PLAINS    MOSUNNY   55  35  47 SW9       30.26R

$$

IAZ060-094-KSZ022-034>040-054-083-096-NEZ052-066-093-171600-
...KANSAS...SOUTHEAST NEBRASKA AND IOWA...

CITY           SKY/WX    TMP DP  RH WIND       PRES   REMARKS
TOPEKA         CLOUDY    40  30  67 N14       30.31R WCI  32
MANHATTAN      CLOUDY    39  28  64 N8        30.32R WCI  33
EMPORIA        CLOUDY    38  29  70 N13       30.28R WCI  30
CHANUTE        CLOUDY    44  33  65 N9        30.27R
WICHITA        CLOUDY    40  29  64 NE12      30.28R WCI  33
OMAHA          PTSUNNY   35  24  64 NW14      30.34R WCI  26
LINCOLN        PTSUNNY   37  24  59 CALM      30.35R
FALLS CITY     CLOUDY    36  27  69 N10       30.31S WCI  28
LAMONI         CLOUDY    35  28  75 NW10      30.29R WCI  27
DES MOINES     CLOUDY    36  27  69 NW15      30.28R WCI  27

$$




USA.gov is the U.S. government's official web portal to all federal, state and local government web resources and services.